Regional Weather Roundup
Issued by NWS State College, PA

Home | Current Version | Previous Version | Text Only | Print | Product List | Glossary Off
Versions: 1 2 3 4 5 6 7 8 9 10 11 12 13 14 15 16 17 18 19 20 21 22 23 24 25 26 27 28 29 30 31 32 33 34 35 36 37 38 39 40 41 42 43 44 45 46 47 48 49 50

000
ASUS41 KCTP 251110
RWRCTP

REGIONAL WEATHER ROUNDUP
NATIONAL WEATHER SERVICE STATE COLLEGE PA
700 AM EDT WED MAY 25 2016

Note: "fair" indicates few or no clouds below 12,000 feet with no
significant weather and/or obstructions to visibility.

* = STATION THAT DOES NOT REPORT PRECIPITATION /E.G. RAIN...SNOW...ETC/
    THUNDER OR FOG.

PAZ002>004-007>009-013>016-020>023-029>032-251200-
WESTERN PENNSYLVANIA

CITY           SKY/WX    TMP DP  RH WIND       PRES   REMARKS
ERIE           MOSUNNY   65  47  52 S7        30.09R
MEADVILLE      MOSUNNY   57  48  72 S5        30.13R
FRANKLIN*      MOSUNNY   57  46  67 SW7       30.17R
NEW CASTLE     FAIR      52  51  97 CALM      30.15R
BEAVER COUNTY  SUNNY     61  50  67 SW5       30.15
BUTLER*        CLOUDY    54  48  82 CALM      30.19R
PITTSBURGH INT CLOUDY    60  49  66 CALM      30.16R
PITTSBURGH     CLOUDY    56  50  80 S7        30.16R
INDIANA*       SUNNY     54  52  94 CALM      30.21R
LATROBE        SUNNY     54  54 100 SW6       30.18R
WASHINGTON CO* SUNNY     48  45  87 CALM      30.17S
$$

PAZ004>006-010>012-017>019-024>028-033>037-041-042-045-046-049>053-251200-
CENTRAL PENNSYLVANIA

CITY           SKY/WX    TMP DP  RH WIND       PRES   REMARKS
BRADFORD       CLOUDY    45  41  86 CALM      30.15R
DUBOIS         SUNNY     51  44  77 CALM      30.16R
CLEARFIELD     SUNNY     50  46  86 CALM      30.17R
JOHNSTOWN      SUNNY     58  45  62 SW7       30.20R
ALTOONA        SUNNY     58  49  72 SW5       30.18R
STATE COLLEGE  SUNNY     52  48  87 CALM      30.15R
WILLIAMSPORT   SUNNY     50  44  80 CALM      30.12R
SELINSGROVE    SUNNY     49  47  93 CALM      30.13R
FT INDIANTOWN  SUNNY     50  50 100 CALM      30.11R
CAPITAL CITY   SUNNY     61  49  64 W3        30.12R
HARRISBURG     MOSUNNY   61  51  70 W5        30.11R
YORK           SUNNY     58  52  80 SE3       30.12R
$$

PAZ038>040-043-044-047-048-054-055-060>062-067>071-251200-
EASTERN PENNSYLVANIA

CITY           SKY/WX    TMP DP  RH WIND       PRES   REMARKS
SCRANTON       SUNNY     51  44  77 SE3       30.11R
MOUNT POCONO   SUNNY     50  39  66 NW7       30.11R
ALLENTOWN      SUNNY     54  51  90 SW5       30.09R
QUAKERTOWN*    SUNNY     50  48  93 CALM      30.10R
READING        SUNNY     55  51  86 CALM      30.10R
LANCASTER      SUNNY     53  49  86 CALM      30.12R
COATESVILLE    SUNNY     61  50  67 W6        30.13R
POTTSTOWN      SUNNY     53  52  96 CALM      30.11R FOG
BLUE BELL      SUNNY     54  54 100 CALM      30.10R
DOYLESTOWN     SUNNY     53  51  93 CALM      30.09R
WILLOW GROVE   NOT AVBL
NORTH PHILA    SUNNY     61  55  81 SW3       30.10R
PHILADELPHIA   MOSUNNY   61  52  72 SW6       30.10R
$$




USA.gov is the U.S. government's official web portal to all federal, state and local government web resources and services.